Location: Westminster College Observatory
(41.1194°N, 80.3291°W)
Time: 15:47:05
(UTC-05:00)

ISS - Visible Passes

Search period start: 20 January 2018 00:00
Search period end: 30 January 2018 00:00
Orbit: 402 x 407 km, 51.6° (Epoch: 21 January)

Date Brightness Start Highest point End Pass type
(mag) Time Alt. Az. Time Alt. Az. Time Alt. Az.
23 Jan -0.5 20:03:51 10° SW 20:03:52 10° SW 20:03:52 10° SW visible
24 Jan -2.8 19:11:45 10° SSW 19:14:09 35° S 19:14:09 35° S visible
25 Jan -2.2 18:20:06 10° S 18:22:39 22° SE 18:24:21 15° E visible
25 Jan -1.1 19:55:49 10° WSW 19:57:02 20° W 19:57:02 20° W visible
26 Jan -3.9 19:03:19 10° WSW 19:06:34 79° NW 19:07:07 57° NE visible
27 Jan -3.5 18:11:05 10° SW 18:14:15 53° SE 18:17:08 12° ENE visible
27 Jan -1.4 19:48:09 10° W 19:49:48 20° NW 19:49:48 20° NW visible
28 Jan -2.7 18:55:20 10° W 18:58:23 36° NNW 18:59:44 24° NNE visible
29 Jan -3.5 18:02:42 10° WSW 18:05:56 63° NNW 18:09:11 10° NE visible
29 Jan -1.3 19:40:40 10° WNW 19:42:15 16° NNW 19:42:15 16° NNW visible
